Weather in Sapogov

Russia / Republic of Khakassia     53°37′07″N   91°17′14″E
temp.,
°C
wind,
m/s
gust,
m/s
humid.,
%
clouds,
%
prec.,
mm/h
press.,
hPa
HPBL,
m
25 may, wed
wed2501:00+14nne227396 0.0 101613
04:00+13ne117688 0.0 101511
07:00+15ne1267100 0.0 1015216
10:00+20ne2248100 0.0 1013672
13:00+25nne3338100 0.0 1011983
16:00+27n553490 0.1 10101259
19:00+25nne3641100 0.1 1010610
22:00+19nw3349100 0.0 101153
26 may, thu
thu2601:00+18nw3350100 0.0 101232
04:00+16nnw22545 0.0 101219
07:00+18nnw37535 0.0 1013315
10:00+22nne56405 0.0 1013961
13:00+25nne55370 0.0 10121676
16:00+25n55330 0.0 10101977
19:00+24nne56290 0.0 10111187
22:00+17n35420 0.0 101278
27 may, fri
fri2701:00+14nne22530 0.0 101124
04:00+13n2255100 0.0 101111
07:00+15n125081 0.0 1010150
10:00+19ne223654 0.0 10091089
13:00+22n433194 0.0 10081742
16:00+23nne562938 0.0 10072081
19:00+20n5931100 0.0 1007605
22:00+18n463687 0.0 1010206
28 may, sat
sat2801:00+14nne375131 0.0 1012256
04:00+11n22705 0.0 101318
07:00+13nne23620 0.0 1014243
10:00+18e334238 0.0 1013930
13:00+21e3233100 0.0 10111531
16:00+23nne2230100 0.0 10091792
19:00+22ene2334100 0.0 1008294
22:00+18ese2339100 0.0 100954
29 may, sun
sun2901:00+17s1143100 0.0 100819
04:00+17sse1144100 0.0 100811
07:00+17s1251100 0.0 100972
10:00+18wsw4650100 0.1 1009428
13:00+16sw6977100 0.9 1010449
16:00+16sw6981100 0.1 1011366
19:00+19sw6957100 0.4 1010767
22:00+15sw4577100 1.3 1013117